Weather History for Opa Locka, FL

Change the Weather History Date:

Sunday, January 26, 2014

  Actual Average Record
Temperature  
Mean Temperature 67 °F -  
Max Temperature 79 °F 75 °F 84 °F (1984)
Min Temperature 55 °F 58 °F 36 °F (1951)
Cooling Degree Days 2    
Growing Degree Days 17 (Base 50)    
Moisture  
Dew Point 59 °F    
Average Humidity 77    
Maximum Humidity 100    
Minimum Humidity 47    
Precipitation  
Precipitation 0.00 in - - ()
Sea Level Pressure  
Sea Level Pressure 30.05 in    
Wind  
Wind Speed 4 mph (SSW)    
Max Wind Speed 10 mph    
Max Gust Speed -    
Visibility 10 miles    
Events      
Averages and records for this station are not official NWS values.
T = Trace of Precipitation, MM = Missing Value Source: NWS Daily Summary

Daily Weather History Graph

Daily Weather History Graph

Search for Another Location

Airport:

Trip Planner

Search our weather history database for the weather conditions in past years. The results will help you decide how hot, cold, wet, or windy it might be!

Date:

Astronomy

Jan. 26, 2014 Rise Set
Actual Time 7:07 AM EST 6:00 PM EST
Civil Twilight 6:43 AM EST 6:24 PM EST
Nautical Twilight 6:15 AM EST 6:52 PM EST
Astronomical Twilight 5:47 AM EST 7:19 PM EST
Moon 2:41 AM EST (1/26) 1:50 PM EST (1/26)
Length of Visible Light 11h 41m
Length of Day
10h 52m
Waning Crescent, 24% of the Moon is Illuminated
Jan 26
Waning Crescent
Jan 30
New
Feb 6
First Quarter
Feb 14
Full
Feb 22
Last Quarter

Hourly Weather History & Observations

Time (EST) Temp. Dew Point Humidity Pressure Visibility Wind Dir Wind Speed Gust Speed Precip Events Conditions
12:53 AM 61.0 °F 60.1 °F 97% 30.10 in 10.0 mi NW 4.6 mph - N/A   Clear
1:53 AM 61.0 °F 59.0 °F 93% 30.09 in 10.0 mi NW 4.6 mph - N/A   Scattered Clouds
2:53 AM 61.0 °F 57.9 °F 90% 30.07 in 10.0 mi NNW 5.8 mph - N/A   Scattered Clouds
3:53 AM 57.9 °F 57.0 °F 97% 30.06 in 10.0 mi Calm Calm - N/A   Clear
4:53 AM 55.9 °F 55.0 °F 97% 30.05 in 10.0 mi Calm Calm - N/A   Clear
5:53 AM 55.0 °F 55.0 °F 100% 30.06 in 10.0 mi Calm Calm - N/A   Clear
6:53 AM 55.9 °F 55.9 °F 100% 30.08 in 9.0 mi Calm Calm - N/A   Clear
7:53 AM 57.9 °F 57.9 °F 100% 30.07 in 10.0 mi Calm Calm - N/A   Clear
8:53 AM 66.0 °F 61.0 °F 84% 30.08 in 10.0 mi SSW 4.6 mph - N/A   Mostly Cloudy
9:53 AM 71.1 °F 61.0 °F 70% 30.10 in 10.0 mi West 3.5 mph - N/A   Clear
10:53 AM 73.9 °F 61.0 °F 64% 30.11 in 10.0 mi WSW 9.2 mph - N/A   Clear
11:53 AM 75.9 °F 59.0 °F 56% 30.08 in 10.0 mi West 5.8 mph - N/A   Clear
12:53 PM 78.1 °F 57.0 °F 48% 30.05 in 10.0 mi Variable 4.6 mph - N/A   Clear
1:53 PM 79.0 °F 57.0 °F 47% 30.01 in 10.0 mi Variable 3.5 mph - N/A   Partly Cloudy
2:53 PM 75.9 °F 60.1 °F 58% 30.00 in 10.0 mi SE 9.2 mph - N/A   Mostly Cloudy
3:53 PM 77.0 °F 59.0 °F 54% 30.00 in 10.0 mi SE 10.4 mph - N/A   Partly Cloudy
4:53 PM 75.0 °F 59.0 °F 57% 30.01 in 10.0 mi SSE 9.2 mph - N/A   Mostly Cloudy
5:53 PM 73.0 °F 59.0 °F 61% 30.02 in 10.0 mi SSE 9.2 mph - N/A   Mostly Cloudy
6:53 PM 72.0 °F 60.1 °F 66% 30.04 in 10.0 mi South 4.6 mph - N/A   Mostly Cloudy
7:53 PM 69.1 °F 61.0 °F 75% 30.04 in 10.0 mi Calm Calm - N/A   Clear
8:53 PM 69.1 °F 61.0 °F 75% 30.05 in 10.0 mi South 4.6 mph - N/A   Partly Cloudy
9:53 PM 66.9 °F 62.1 °F 84% 30.05 in 10.0 mi South 3.5 mph - N/A   Clear
10:53 PM 64.9 °F 62.1 °F 90% 30.05 in 10.0 mi Calm Calm - N/A   Clear
11:53 PM 64.9 °F 63.0 °F 93% 30.04 in 10.0 mi Calm Calm - N/A   Clear